Time,TemperatureF,DewpointF,PressureIn,WindDirection,WindDirectionDegrees,WindSpeedMPH,WindSpeedGustMPH,Humidity,HourlyPrecipIn,Conditions,Clouds,dailyrainin,SolarRadiationWatts/m^2,SoftwareType,DateUTC
2013-09-10 00:02:00,67.6,63.6,29.75,WNW,282,9.0,16.0,87,0.00,,,0.00,0,WeatherCatV1.11B39,2013-09-10 07:02:00,
2013-09-10 00:07:00,67.0,63.6,29.77,West,259,7.0,7.0,89,0.00,,,0.00,0,WeatherCatV1.11B39,2013-09-10 07:07:00,
2013-09-10 00:12:00,66.1,63.1,29.77,WNW,287,12.0,17.0,90,0.00,,,0.00,0,WeatherCatV1.11B39,2013-09-10 07:12:00,
2013-09-10 00:17:00,65.5,62.5,29.77,WNW,285,12.0,12.0,90,0.00,,,0.00,0,WeatherCatV1.11B39,2013-09-10 07:17:00,
2013-09-10 00:22:00,65.7,63.3,29.78,WNW,286,5.0,9.0,92,0.00,,,0.00,0,WeatherCatV1.11B39,2013-09-10 07:22:00,
2013-09-10 00:27:00,65.9,63.5,29.77,NW,309,4.0,7.0,92,0.00,,,0.00,0,WeatherCatV1.11B39,2013-09-10 07:27:00,
2013-09-10 00:32:00,66.0,63.9,29.78,NNW,334,4.0,5.0,93,0.00,,,0.00,0,WeatherCatV1.11B39,2013-09-10 07:32:00,
2013-09-10 00:37:00,66.1,64.0,29.78,NW,306,1.0,2.0,93,0.00,,,0.00,0,WeatherCatV1.11B39,2013-09-10 07:37:00,
2013-09-10 00:42:00,66.3,64.2,29.77,NW,306,0.0,2.0,93,0.00,,,0.00,0,WeatherCatV1.11B39,2013-09-10 07:42:00,
2013-09-10 00:47:00,66.5,64.7,29.77,NW,306,0.0,0.0,94,0.00,,,0.00,0,WeatherCatV1.11B39,2013-09-10 07:47:00,
2013-09-10 00:52:00,66.6,64.8,29.76,NW,306,1.0,3.0,94,0.00,,,0.00,0,WeatherCatV1.11B39,2013-09-10 07:52:00,
2013-09-10 00:57:00,66.6,64.8,29.76,ESE,120,2.0,5.0,94,0.00,,,0.00,0,WeatherCatV1.11B39,2013-09-10 07:57:00,
2013-09-10 01:02:00,66.2,64.4,29.75,ESE,116,2.0,7.0,94,0.00,,,0.00,0,WeatherCatV1.11B39,2013-09-10 08:02:00,
2013-09-10 01:07:00,65.9,64.1,29.75,ESE,111,3.0,7.0,94,0.00,,,0.00,0,WeatherCatV1.11B39,2013-09-10 08:07:00,
2013-09-10 01:12:00,65.6,63.8,29.74,SE,132,6.0,8.0,94,0.00,,,0.00,0,WeatherCatV1.11B39,2013-09-10 08:12:00,
2013-09-10 01:17:00,65.2,63.1,29.74,SE,130,7.0,8.0,93,0.00,,,0.00,0,WeatherCatV1.11B39,2013-09-10 08:17:00,
2013-09-10 01:22:00,64.9,63.1,29.73,SE,129,3.0,7.0,94,0.00,,,0.00,0,WeatherCatV1.11B39,2013-09-10 08:22:00,
2013-09-10 01:27:00,64.8,63.0,29.72,ESE,118,5.0,6.0,94,0.00,,,0.00,0,WeatherCatV1.11B39,2013-09-10 08:27:00,
2013-09-10 01:32:00,64.9,63.1,29.72,SE,137,3.0,6.0,94,0.00,,,0.00,0,WeatherCatV1.11B39,2013-09-10 08:32:00,
2013-09-10 01:37:00,64.9,63.1,29.72,SE,127,4.0,6.0,94,0.00,,,0.00,0,WeatherCatV1.11B39,2013-09-10 08:37:00,
2013-09-10 01:42:00,64.8,63.0,29.72,SE,128,1.0,6.0,94,0.00,,,0.00,0,WeatherCatV1.11B39,2013-09-10 08:42:00,
2013-09-10 01:47:00,64.8,63.0,29.72,SE,129,0.0,0.0,94,0.00,,,0.00,0,WeatherCatV1.11B39,2013-09-10 08:47:00,
2013-09-10 01:52:00,64.7,62.9,29.72,SE,129,1.0,1.0,94,0.00,,,0.00,0,WeatherCatV1.11B39,2013-09-10 08:52:00,
2013-09-10 01:57:00,64.8,63.0,29.72,SE,129,1.0,1.0,94,0.00,,,0.00,0,WeatherCatV1.11B39,2013-09-10 08:57:00,
2013-09-10 02:02:00,65.0,63.5,29.72,SE,129,0.0,2.0,95,0.00,,,0.00,0,WeatherCatV1.11B39,2013-09-10 09:02:00,
2013-09-10 02:07:00,65.3,63.8,29.72,SE,129,0.0,0.0,95,0.00,,,0.00,0,WeatherCatV1.11B39,2013-09-10 09:07:00,
2013-09-10 02:12:00,65.3,63.5,29.72,SE,128,0.0,0.0,94,0.00,,,0.00,0,WeatherCatV1.11B39,2013-09-10 09:12:00,
2013-09-10 02:17:00,65.4,63.9,29.73,WNW,288,7.0,7.0,95,0.00,,,0.00,0,WeatherCatV1.11B39,2013-09-10 09:17:00,
2013-09-10 02:22:00,65.4,63.9,29.73,WNW,282,3.0,5.0,95,0.00,,,0.00,0,WeatherCatV1.11B39,2013-09-10 09:22:00,
2013-09-10 02:27:00,65.2,63.4,29.73,West,269,2.0,3.0,94,0.00,,,0.00,0,WeatherCatV1.11B39,2013-09-10 09:27:00,
2013-09-10 02:32:00,65.1,63.3,29.73,West,271,2.0,5.0,94,0.00,,,0.00,0,WeatherCatV1.11B39,2013-09-10 09:32:00,
2013-09-10 02:37:00,65.0,63.5,29.72,West,273,0.0,3.0,95,0.00,,,0.00,0,WeatherCatV1.11B39,2013-09-10 09:37:00,
2013-09-10 02:42:00,64.9,63.4,29.72,West,273,0.0,1.0,95,0.00,,,0.00,0,WeatherCatV1.11B39,2013-09-10 09:42:00,
2013-09-10 02:47:00,64.9,63.4,29.72,West,274,2.0,3.0,95,0.00,,,0.00,0,WeatherCatV1.11B39,2013-09-10 09:47:00,
2013-09-10 02:52:00,64.9,63.4,29.72,NW,313,3.0,5.0,95,0.00,,,0.00,0,WeatherCatV1.11B39,2013-09-10 09:52:00,
2013-09-10 02:57:00,64.9,63.4,29.72,NW,319,3.0,4.0,95,0.00,,,0.00,0,WeatherCatV1.11B39,2013-09-10 09:57:00,
2013-09-10 03:02:00,64.8,63.3,29.72,NW,319,1.0,2.0,95,0.00,,,0.00,0,WeatherCatV1.11B39,2013-09-10 10:02:00,
2013-09-10 03:07:00,64.9,63.4,29.72,NW,319,0.0,0.0,95,0.00,,,0.00,0,WeatherCatV1.11B39,2013-09-10 10:07:00,
2013-09-10 03:12:00,64.9,63.4,29.72,NW,319,0.0,1.0,95,0.00,,,0.00,0,WeatherCatV1.11B39,2013-09-10 10:12:00,
2013-09-10 03:17:00,64.9,63.4,29.73,NW,319,0.0,0.0,95,0.00,,,0.00,0,WeatherCatV1.11B39,2013-09-10 10:17:00,
2013-09-10 03:22:00,65.0,63.5,29.72,NW,319,0.0,0.0,95,0.00,,,0.00,0,WeatherCatV1.11B39,2013-09-10 10:22:00,
2013-09-10 03:27:00,65.1,63.6,29.72,NW,319,0.0,1.0,95,0.00,,,0.00,0,WeatherCatV1.11B39,2013-09-10 10:27:00,
2013-09-10 03:32:00,65.2,63.7,29.72,NW,319,0.0,0.0,95,0.00,,,0.00,0,WeatherCatV1.11B39,2013-09-10 10:32:00,
2013-09-10 03:37:00,65.2,63.7,29.72,NW,319,0.0,0.0,95,0.00,,,0.00,0,WeatherCatV1.11B39,2013-09-10 10:37:00,
2013-09-10 03:42:00,65.3,63.8,29.73,NW,319,0.0,0.0,95,0.00,,,0.00,0,WeatherCatV1.11B39,2013-09-10 10:42:00,
2013-09-10 03:47:00,65.4,63.9,29.72,NW,319,0.0,0.0,95,0.00,,,0.00,0,WeatherCatV1.11B39,2013-09-10 10:47:00,
2013-09-10 03:52:00,65.4,63.9,29.72,NW,319,0.0,0.0,95,0.00,,,0.00,0,WeatherCatV1.11B39,2013-09-10 10:52:00,
2013-09-10 03:57:00,65.3,63.8,29.73,NW,319,1.0,2.0,95,0.00,,,0.00,0,WeatherCatV1.11B39,2013-09-10 10:57:00,
2013-09-10 04:02:00,65.3,63.8,29.73,NW,319,0.0,0.0,95,0.00,,,0.00,0,WeatherCatV1.11B39,2013-09-10 11:02:00,
2013-09-10 04:07:00,65.2,63.7,29.73,NW,319,0.0,0.0,95,0.00,,,0.00,0,WeatherCatV1.11B39,2013-09-10 11:07:00,
2013-09-10 04:12:00,64.9,63.4,29.73,NW,319,1.0,2.0,95,0.00,,,0.00,0,WeatherCatV1.11B39,2013-09-10 11:12:00,
2013-09-10 04:17:00,65.0,63.5,29.73,NW,319,0.0,2.0,95,0.00,,,0.00,0,WeatherCatV1.11B39,2013-09-10 11:17:00,
2013-09-10 04:22:00,64.9,63.4,29.73,NW,319,0.0,1.0,95,0.00,,,0.00,0,WeatherCatV1.11B39,2013-09-10 11:22:00,
2013-09-10 04:27:00,64.9,63.4,29.74,NW,319,0.0,0.0,95,0.00,,,0.00,0,WeatherCatV1.11B39,2013-09-10 11:27:00,
2013-09-10 04:32:00,64.7,63.2,29.74,NW,319,0.0,0.0,95,0.00,,,0.00,0,WeatherCatV1.11B39,2013-09-10 11:32:00,
2013-09-10 04:37:00,64.7,63.2,29.74,NW,319,0.0,0.0,95,0.00,,,0.00,0,WeatherCatV1.11B39,2013-09-10 11:37:00,
2013-09-10 04:42:00,64.5,63.0,29.74,NW,319,0.0,0.0,95,0.00,,,0.00,0,WeatherCatV1.11B39,2013-09-10 11:42:00,
2013-09-10 04:47:00,64.3,62.8,29.74,NW,319,1.0,1.0,95,0.00,,,0.00,0,WeatherCatV1.11B39,2013-09-10 11:47:00,
2013-09-10 04:52:00,64.3,63.1,29.74,NW,319,1.0,2.0,96,0.00,,,0.00,0,WeatherCatV1.11B39,2013-09-10 11:52:00,
2013-09-10 04:57:00,64.3,63.1,29.74,NW,319,2.0,3.0,96,0.00,,,0.00,0,WeatherCatV1.11B39,2013-09-10 11:57:00,
2013-09-10 05:02:00,64.5,63.3,29.74,NW,319,1.0,1.0,96,0.00,,,0.00,0,WeatherCatV1.11B39,2013-09-10 12:02:00,
2013-09-10 05:07:00,64.5,63.3,29.74,NW,319,1.0,1.0,96,0.00,,,0.00,0,WeatherCatV1.11B39,2013-09-10 12:07:00,
2013-09-10 05:12:00,64.5,63.3,29.74,SSW,199,0.0,5.0,96,0.00,,,0.00,0,WeatherCatV1.11B39,2013-09-10 12:12:00,
2013-09-10 05:17:00,64.5,63.3,29.74,SSW,199,2.0,3.0,96,0.00,,,0.00,0,WeatherCatV1.11B39,2013-09-10 12:17:00,
2013-09-10 05:22:00,64.5,63.3,29.74,SSW,199,2.0,3.0,96,0.00,,,0.00,0,WeatherCatV1.11B39,2013-09-10 12:22:00,
2013-09-10 05:27:00,64.4,63.2,29.74,SSW,199,1.0,3.0,96,0.00,,,0.00,0,WeatherCatV1.11B39,2013-09-10 12:27:00,
2013-09-10 05:32:00,64.3,63.1,29.75,SSW,199,0.0,0.0,96,0.00,,,0.00,0,WeatherCatV1.11B39,2013-09-10 12:32:00,
2013-09-10 05:37:00,64.1,62.6,29.75,WNW,299,2.0,3.0,95,0.00,,,0.00,0,WeatherCatV1.11B39,2013-09-10 12:37:00,
2013-09-10 05:42:00,64.1,62.9,29.75,North,357,2.0,4.0,96,0.00,,,0.00,0,WeatherCatV1.11B39,2013-09-10 12:42:00,
2013-09-10 05:47:00,64.2,63.0,29.75,North,357,0.0,3.0,96,0.00,,,0.00,0,WeatherCatV1.11B39,2013-09-10 12:47:00,
2013-09-10 05:52:00,64.1,62.9,29.75,North,357,1.0,2.0,96,0.00,,,0.00,0,WeatherCatV1.11B39,2013-09-10 12:52:00,
2013-09-10 05:57:00,64.1,62.9,29.75,North,357,1.0,2.0,96,0.00,,,0.00,0,WeatherCatV1.11B39,2013-09-10 12:57:00,
2013-09-10 06:02:00,64.1,62.9,29.76,North,357,0.0,1.0,96,0.00,,,0.00,0,WeatherCatV1.11B39,2013-09-10 13:02:00,
2013-09-10 06:07:00,64.0,62.8,29.76,North,357,0.0,0.0,96,0.00,,,0.00,5,WeatherCatV1.11B39,2013-09-10 13:07:00,
2013-09-10 06:12:00,64.0,62.8,29.76,North,357,0.0,1.0,96,0.00,,,0.00,5,WeatherCatV1.11B39,2013-09-10 13:12:00,
2013-09-10 06:17:00,64.0,62.8,29.76,North,357,1.0,1.0,96,0.00,,,0.00,9,WeatherCatV1.11B39,2013-09-10 13:17:00,
2013-09-10 06:22:00,63.9,62.4,29.77,North,357,0.0,1.0,95,0.00,,,0.00,12,WeatherCatV1.11B39,2013-09-10 13:22:00,
2013-09-10 06:27:00,63.9,62.7,29.76,North,357,2.0,2.0,96,0.00,,,0.00,16,WeatherCatV1.11B39,2013-09-10 13:27:00,
2013-09-10 06:32:00,63.9,62.7,29.77,North,357,0.0,2.0,96,0.00,,,0.00,19,WeatherCatV1.11B39,2013-09-10 13:32:00,
2013-09-10 06:37:00,63.9,62.7,29.77,North,357,0.0,0.0,96,0.00,,,0.00,26,WeatherCatV1.11B39,2013-09-10 13:37:00,
2013-09-10 06:42:00,64.0,62.8,29.77,NE,44,3.0,3.0,96,0.00,,,0.00,33,WeatherCatV1.11B39,2013-09-10 13:42:00,
2013-09-10 06:47:00,64.2,63.0,29.77,NE,46,3.0,4.0,96,0.00,,,0.00,30,WeatherCatV1.11B39,2013-09-10 13:47:00,
2013-09-10 06:52:00,64.4,63.2,29.77,NE,46,1.0,1.0,96,0.00,,,0.00,58,WeatherCatV1.11B39,2013-09-10 13:52:00,
2013-09-10 06:57:00,64.6,63.4,29.78,NE,46,1.0,3.0,96,0.00,,,0.00,105,WeatherCatV1.11B39,2013-09-10 13:57:00,
2013-09-10 07:02:00,65.0,63.8,29.78,NE,46,2.0,3.0,96,0.00,,,0.00,135,WeatherCatV1.11B39,2013-09-10 14:02:00,
2013-09-10 07:07:00,65.4,64.2,29.78,NE,46,0.0,1.0,96,0.00,,,0.00,153,WeatherCatV1.11B39,2013-09-10 14:07:00,
2013-09-10 07:12:00,65.9,64.7,29.78,NE,46,0.0,1.0,96,0.00,,,0.00,169,WeatherCatV1.11B39,2013-09-10 14:12:00,
2013-09-10 07:17:00,66.4,65.2,29.78,NE,46,0.0,1.0,96,0.00,,,0.00,183,WeatherCatV1.11B39,2013-09-10 14:17:00,
2013-09-10 07:22:00,67.0,65.8,29.78,NE,46,2.0,2.0,96,0.00,,,0.00,199,WeatherCatV1.11B39,2013-09-10 14:22:00,
2013-09-10 07:27:00,67.6,66.4,29.78,NE,46,0.0,2.0,96,0.00,,,0.00,214,WeatherCatV1.11B39,2013-09-10 14:27:00,
2013-09-10 07:32:00,68.1,66.6,29.78,NE,46,0.0,2.0,95,0.00,,,0.00,229,WeatherCatV1.11B39,2013-09-10 14:32:00,
2013-09-10 07:37:00,68.8,67.0,29.79,NE,46,1.0,1.0,94,0.00,,,0.00,255,WeatherCatV1.11B39,2013-09-10 14:37:00,
2013-09-10 07:42:00,69.4,67.0,29.79,NE,46,2.0,3.0,92,0.00,,,0.00,301,WeatherCatV1.11B39,2013-09-10 14:42:00,
2013-09-10 07:47:00,70.2,66.1,29.79,NE,47,0.0,1.0,87,0.00,,,0.00,369,WeatherCatV1.11B39,2013-09-10 14:47:00,
2013-09-10 07:52:00,71.5,66.7,29.79,NE,47,0.0,0.0,85,0.00,,,0.00,156,WeatherCatV1.11B39,2013-09-10 14:52:00,
2013-09-10 07:57:00,71.5,64.3,29.79,NE,47,1.0,2.0,78,0.00,,,0.00,171,WeatherCatV1.11B39,2013-09-10 14:57:00,
2013-09-10 08:02:00,71.7,64.8,29.79,NE,47,0.0,1.0,79,0.00,,,0.00,123,WeatherCatV1.11B39,2013-09-10 15:02:00,
2013-09-10 08:07:00,72.2,65.3,29.79,NE,47,0.0,2.0,79,0.00,,,0.00,366,WeatherCatV1.11B39,2013-09-10 15:07:00,
2013-09-10 08:12:00,73.2,65.5,29.79,NE,47,0.0,1.0,77,0.00,,,0.00,381,WeatherCatV1.11B39,2013-09-10 15:12:00,
2013-09-10 08:17:00,74.0,65.9,29.79,NE,47,1.0,2.0,76,0.00,,,0.00,392,WeatherCatV1.11B39,2013-09-10 15:17:00,
2013-09-10 08:22:00,74.5,65.7,29.80,NE,47,0.0,0.0,74,0.00,,,0.00,396,WeatherCatV1.11B39,2013-09-10 15:22:00,
2013-09-10 08:27:00,75.0,64.9,29.79,NE,47,0.0,2.0,71,0.00,,,0.00,422,WeatherCatV1.11B39,2013-09-10 15:27:00,
2013-09-10 08:32:00,75.5,65.0,29.79,NE,47,0.0,3.0,70,0.00,,,0.00,436,WeatherCatV1.11B39,2013-09-10 15:32:00,
2013-09-10 08:37:00,75.7,64.4,29.80,NE,47,1.0,2.0,68,0.00,,,0.00,455,WeatherCatV1.11B39,2013-09-10 15:37:00,
2013-09-10 08:42:00,75.7,64.4,29.80,NE,47,1.0,1.0,68,0.00,,,0.00,466,WeatherCatV1.11B39,2013-09-10 15:42:00,
2013-09-10 08:47:00,75.9,65.0,29.80,NE,47,2.0,3.0,69,0.00,,,0.00,487,WeatherCatV1.11B39,2013-09-10 15:47:00,
2013-09-10 08:52:00,76.2,64.8,29.79,SE,138,4.0,5.0,68,0.00,,,0.00,503,WeatherCatV1.11B39,2013-09-10 15:52:00,
2013-09-10 08:57:00,76.6,64.8,29.80,SSE,161,0.0,3.0,67,0.00,,,0.00,517,WeatherCatV1.11B39,2013-09-10 15:57:00,
2013-09-10 09:02:00,76.4,64.6,29.80,SSE,162,1.0,3.0,67,0.00,,,0.00,531,WeatherCatV1.11B39,2013-09-10 16:02:00,
2013-09-10 09:07:00,76.6,64.8,29.80,South,188,2.0,6.0,67,0.00,,,0.00,548,WeatherCatV1.11B39,2013-09-10 16:07:00,
2013-09-10 09:12:00,76.7,65.3,29.80,South,178,4.0,6.0,68,0.00,,,0.00,559,WeatherCatV1.11B39,2013-09-10 16:12:00,
2013-09-10 09:17:00,77.1,65.3,29.80,South,171,4.0,6.0,67,0.00,,,0.00,575,WeatherCatV1.11B39,2013-09-10 16:17:00,
2013-09-10 09:22:00,77.3,65.5,29.80,SSW,193,0.0,4.0,67,0.00,,,0.00,592,WeatherCatV1.11B39,2013-09-10 16:22:00,
2013-09-10 09:27:00,78.0,67.0,29.80,SSW,197,1.0,5.0,69,0.00,,,0.00,603,WeatherCatV1.11B39,2013-09-10 16:27:00,
2013-09-10 09:32:00,78.2,66.8,29.81,South,176,3.0,5.0,68,0.00,,,0.00,617,WeatherCatV1.11B39,2013-09-10 16:32:00,
2013-09-10 09:37:00,78.1,65.4,29.80,SSW,205,4.0,4.0,65,0.00,,,0.00,633,WeatherCatV1.11B39,2013-09-10 16:37:00,
2013-09-10 09:42:00,77.2,64.5,29.80,SW,236,0.0,2.0,65,0.00,,,0.00,645,WeatherCatV1.11B39,2013-09-10 16:42:00,
2013-09-10 09:47:00,78.3,65.5,29.80,SSW,194,0.0,2.0,65,0.00,,,0.00,659,WeatherCatV1.11B39,2013-09-10 16:47:00,
2013-09-10 09:52:00,77.6,64.4,29.80,SSW,194,0.0,1.0,64,0.00,,,0.00,671,WeatherCatV1.11B39,2013-09-10 16:52:00,
2013-09-10 09:57:00,78.1,65.4,29.80,SSW,194,1.0,2.0,65,0.00,,,0.00,682,WeatherCatV1.11B39,2013-09-10 16:57:00,
2013-09-10 10:02:00,78.7,65.9,29.80,South,191,0.0,2.0,65,0.00,,,0.00,694,WeatherCatV1.11B39,2013-09-10 17:02:00,
2013-09-10 10:07:00,78.6,65.8,29.80,South,191,0.0,1.0,65,0.00,,,0.00,724,WeatherCatV1.11B39,2013-09-10 17:07:00,
2013-09-10 10:12:00,79.7,68.2,29.80,South,191,3.0,3.0,68,0.00,,,0.00,749,WeatherCatV1.11B39,2013-09-10 17:12:00,
2013-09-10 10:17:00,79.5,65.8,29.81,NW,312,3.0,5.0,63,0.00,,,0.00,765,WeatherCatV1.11B39,2013-09-10 17:17:00,
2013-09-10 10:22:00,79.4,65.7,29.80,SSW,199,4.0,5.0,63,0.00,,,0.00,766,WeatherCatV1.11B39,2013-09-10 17:22:00,
2013-09-10 10:27:00,80.0,66.7,29.80,SSW,195,3.0,5.0,64,0.00,,,0.00,758,WeatherCatV1.11B39,2013-09-10 17:27:00,
2013-09-10 10:32:00,80.2,66.4,29.80,SSW,196,0.0,1.0,63,0.00,,,0.00,768,WeatherCatV1.11B39,2013-09-10 17:32:00,
2013-09-10 10:37:00,80.1,64.9,29.80,West,276,2.0,4.0,60,0.00,,,0.00,766,WeatherCatV1.11B39,2013-09-10 17:37:00,
2013-09-10 10:42:00,79.7,66.0,29.80,WSW,241,0.0,2.0,63,0.00,,,0.00,780,WeatherCatV1.11B39,2013-09-10 17:42:00,
2013-09-10 10:47:00,79.6,65.4,29.80,WSW,242,0.0,3.0,62,0.00,,,0.00,786,WeatherCatV1.11B39,2013-09-10 17:47:00,
2013-09-10 10:52:00,79.0,64.4,29.80,North,359,1.0,2.0,61,0.00,,,0.00,798,WeatherCatV1.11B39,2013-09-10 17:52:00,
2013-09-10 10:57:00,79.5,64.8,29.80,East,94,2.0,5.0,61,0.00,,,0.00,802,WeatherCatV1.11B39,2013-09-10 17:57:00,
2013-09-10 11:02:00,80.4,66.2,29.80,SE,128,2.0,6.0,62,0.00,,,0.00,809,WeatherCatV1.11B39,2013-09-10 18:02:00,
2013-09-10 11:07:00,80.8,66.1,29.79,SE,133,0.0,3.0,61,0.00,,,0.00,838,WeatherCatV1.11B39,2013-09-10 18:07:00,
2013-09-10 11:12:00,80.5,65.3,29.79,ESE,105,3.0,3.0,60,0.00,,,0.00,621,WeatherCatV1.11B39,2013-09-10 18:12:00,
2013-09-10 11:17:00,79.6,64.9,29.79,NW,324,0.0,5.0,61,0.00,,,0.00,907,WeatherCatV1.11B39,2013-09-10 18:17:00,
2013-09-10 11:22:00,80.5,66.3,29.79,SSE,168,4.0,6.0,62,0.00,,,0.00,882,WeatherCatV1.11B39,2013-09-10 18:22:00,
2013-09-10 11:27:00,80.7,65.0,29.79,SSE,149,2.0,5.0,59,0.00,,,0.00,928,WeatherCatV1.11B39,2013-09-10 18:27:00,
2013-09-10 11:32:00,81.0,65.8,29.79,WNW,292,2.0,5.0,60,0.00,,,0.00,967,WeatherCatV1.11B39,2013-09-10 18:32:00,
2013-09-10 11:37:00,82.7,65.9,29.78,NW,307,3.0,8.0,57,0.00,,,0.00,909,WeatherCatV1.11B39,2013-09-10 18:37:00,
2013-09-10 11:42:00,82.3,62.9,29.78,NNW,343,4.0,8.0,52,0.00,,,0.00,942,WeatherCatV1.11B39,2013-09-10 18:42:00,
2013-09-10 11:47:00,81.8,64.0,29.78,WNW,292,3.0,5.0,55,0.00,,,0.00,942,WeatherCatV1.11B39,2013-09-10 18:47:00,
2013-09-10 11:52:00,82.6,63.7,29.78,SSW,203,5.0,8.0,53,0.00,,,0.00,923,WeatherCatV1.11B39,2013-09-10 18:52:00,
2013-09-10 11:57:00,83.8,63.7,29.78,West,280,2.0,4.0,51,0.00,,,0.00,939,WeatherCatV1.11B39,2013-09-10 18:57:00,
2013-09-10 12:02:00,83.8,64.8,29.78,SSW,211,3.0,5.0,53,0.00,,,0.00,891,WeatherCatV1.11B39,2013-09-10 19:02:00,
2013-09-10 12:07:00,84.0,63.3,29.78,SW,223,1.0,2.0,50,0.00,,,0.00,942,WeatherCatV1.11B39,2013-09-10 19:07:00,
2013-09-10 12:12:00,84.1,65.1,29.78,West,269,2.0,6.0,53,0.00,,,0.00,972,WeatherCatV1.11B39,2013-09-10 19:12:00,
2013-09-10 12:17:00,83.8,63.1,29.78,South,186,7.0,8.0,50,0.00,,,0.00,227,WeatherCatV1.11B39,2013-09-10 19:17:00,
2013-09-10 12:22:00,82.7,62.7,29.78,South,189,2.0,6.0,51,0.00,,,0.00,1063,WeatherCatV1.11B39,2013-09-10 19:22:00,
2013-09-10 12:27:00,83.4,63.9,29.78,West,275,3.0,5.0,52,0.00,,,0.00,956,WeatherCatV1.11B39,2013-09-10 19:27:00,
2013-09-10 12:32:00,84.1,62.8,29.77,South,191,2.0,7.0,49,0.00,,,0.00,958,WeatherCatV1.11B39,2013-09-10 19:32:00,
2013-09-10 12:37:00,84.5,62.6,29.77,WSW,242,7.0,9.0,48,0.00,,,0.00,932,WeatherCatV1.11B39,2013-09-10 19:37:00,
2013-09-10 12:42:00,84.6,62.1,29.77,WSW,250,2.0,5.0,47,0.00,,,0.00,1014,WeatherCatV1.11B39,2013-09-10 19:42:00,
2013-09-10 12:47:00,85.5,62.9,29.77,SW,230,4.0,7.0,47,0.00,,,0.00,1032,WeatherCatV1.11B39,2013-09-10 19:47:00,
2013-09-10 12:52:00,86.5,63.2,29.77,WSW,257,7.0,11.0,46,0.00,,,0.00,963,WeatherCatV1.11B39,2013-09-10 19:52:00,
2013-09-10 12:57:00,86.3,63.0,29.77,SSW,193,8.0,9.0,46,0.00,,,0.00,984,WeatherCatV1.11B39,2013-09-10 19:57:00,
2013-09-10 13:02:00,85.8,61.3,29.77,SSW,211,1.0,7.0,44,0.00,,,0.00,255,WeatherCatV1.11B39,2013-09-10 20:02:00,
2013-09-10 13:07:00,85.7,63.1,29.77,SW,233,6.0,11.0,47,0.00,,,0.00,1092,WeatherCatV1.11B39,2013-09-10 20:07:00,
2013-09-10 13:12:00,86.7,61.5,29.77,SW,226,5.0,9.0,43,0.00,,,0.00,1044,WeatherCatV1.11B39,2013-09-10 20:12:00,
2013-09-10 13:17:00,86.4,61.9,29.76,NW,321,5.0,9.0,44,0.00,,,0.00,1129,WeatherCatV1.11B39,2013-09-10 20:17:00,
2013-09-10 13:22:00,85.4,62.8,29.76,WNW,283,1.0,6.0,47,0.00,,,0.00,269,WeatherCatV1.11B39,2013-09-10 20:22:00,
2013-09-10 13:27:00,85.4,62.2,29.77,WSW,250,10.0,10.0,46,0.00,,,0.00,909,WeatherCatV1.11B39,2013-09-10 20:27:00,
2013-09-10 13:32:00,85.8,62.6,29.77,West,281,9.0,9.0,46,0.00,,,0.00,960,WeatherCatV1.11B39,2013-09-10 20:32:00,
2013-09-10 13:37:00,85.9,63.9,29.77,WSW,244,4.0,8.0,48,0.00,,,0.00,283,WeatherCatV1.11B39,2013-09-10 20:37:00,
2013-09-10 13:42:00,85.5,62.9,29.77,WSW,257,9.0,12.0,47,0.00,,,0.00,993,WeatherCatV1.11B39,2013-09-10 20:42:00,
2013-09-10 13:47:00,84.9,61.8,29.76,WNW,283,5.0,10.0,46,0.00,,,0.00,230,WeatherCatV1.11B39,2013-09-10 20:47:00,
2013-09-10 13:52:00,85.0,62.5,29.77,West,260,4.0,12.0,47,0.00,,,0.00,881,WeatherCatV1.11B39,2013-09-10 20:52:00,
2013-09-10 13:57:00,85.9,62.7,29.76,WNW,282,7.0,12.0,46,0.00,,,0.00,884,WeatherCatV1.11B39,2013-09-10 20:57:00,
2013-09-10 14:02:00,86.4,63.1,29.77,WSW,249,9.0,11.0,46,0.00,,,0.00,914,WeatherCatV1.11B39,2013-09-10 21:02:00,
2013-09-10 14:07:00,86.6,62.7,29.76,WSW,243,5.0,10.0,45,0.00,,,0.00,898,WeatherCatV1.11B39,2013-09-10 21:07:00,
2013-09-10 14:12:00,86.1,62.9,29.76,WSW,255,5.0,11.0,46,0.00,,,0.00,919,WeatherCatV1.11B39,2013-09-10 21:12:00,
2013-09-10 14:17:00,85.9,62.1,29.76,WNW,283,7.0,14.0,45,0.00,,,0.00,195,WeatherCatV1.11B39,2013-09-10 21:17:00,
2013-09-10 14:22:00,83.9,60.9,29.76,WNW,284,3.0,4.0,46,0.00,,,0.00,223,WeatherCatV1.11B39,2013-09-10 21:22:00,
2013-09-10 14:27:00,84.0,61.6,29.75,WNW,289,4.0,7.0,47,0.00,,,0.00,227,WeatherCatV1.11B39,2013-09-10 21:27:00,
2013-09-10 14:32:00,86.5,62.0,29.75,West,278,7.0,9.0,44,0.00,,,0.00,858,WeatherCatV1.11B39,2013-09-10 21:32:00,
2013-09-10 14:37:00,86.1,62.2,29.75,West,280,4.0,9.0,45,0.00,,,0.00,872,WeatherCatV1.11B39,2013-09-10 21:37:00,
2013-09-10 14:42:00,86.5,63.2,29.75,SW,228,6.0,10.0,46,0.00,,,0.00,786,WeatherCatV1.11B39,2013-09-10 21:42:00,
2013-09-10 14:47:00,86.2,62.3,29.75,West,277,6.0,7.0,45,0.00,,,0.00,754,WeatherCatV1.11B39,2013-09-10 21:47:00,
2013-09-10 14:52:00,84.8,61.7,29.75,West,274,6.0,10.0,46,0.00,,,0.00,756,WeatherCatV1.11B39,2013-09-10 21:52:00,
2013-09-10 14:57:00,85.0,61.9,29.75,SW,222,3.0,6.0,46,0.00,,,0.00,742,WeatherCatV1.11B39,2013-09-10 21:57:00,
2013-09-10 15:02:00,85.6,62.4,29.75,WSW,256,6.0,7.0,46,0.00,,,0.00,153,WeatherCatV1.11B39,2013-09-10 22:02:00,
2013-09-10 15:07:00,84.1,61.1,29.74,WSW,239,1.0,4.0,46,0.00,,,0.00,162,WeatherCatV1.11B39,2013-09-10 22:07:00,
2013-09-10 15:12:00,84.2,61.1,29.74,West,262,5.0,6.0,46,0.00,,,0.00,174,WeatherCatV1.11B39,2013-09-10 22:12:00,
2013-09-10 15:17:00,83.7,60.7,29.75,WSW,240,7.0,8.0,46,0.00,,,0.00,144,WeatherCatV1.11B39,2013-09-10 22:17:00,
2013-09-10 15:22:00,83.2,61.4,29.75,WNW,282,4.0,9.0,48,0.00,,,0.00,192,WeatherCatV1.11B39,2013-09-10 22:22:00,
2013-09-10 15:27:00,84.3,61.2,29.75,West,267,7.0,9.0,46,0.00,,,0.00,684,WeatherCatV1.11B39,2013-09-10 22:27:00,
2013-09-10 15:32:00,84.8,60.4,29.74,West,278,2.0,9.0,44,0.00,,,0.00,406,WeatherCatV1.11B39,2013-09-10 22:32:00,
2013-09-10 15:37:00,84.1,61.1,29.74,WSW,247,4.0,10.0,46,0.00,,,0.00,116,WeatherCatV1.11B39,2013-09-10 22:37:00,
2013-09-10 15:42:00,83.6,60.6,29.74,WNW,292,6.0,6.0,46,0.00,,,0.00,162,WeatherCatV1.11B39,2013-09-10 22:42:00,
2013-09-10 15:47:00,83.3,61.5,29.74,WNW,291,5.0,7.0,48,0.00,,,0.00,185,WeatherCatV1.11B39,2013-09-10 22:47:00,
2013-09-10 15:52:00,83.9,62.7,29.74,WNW,297,8.0,9.0,49,0.00,,,0.00,645,WeatherCatV1.11B39,2013-09-10 22:52:00,
2013-09-10 15:57:00,84.7,61.0,29.74,WNW,301,3.0,6.0,45,0.00,,,0.00,155,WeatherCatV1.11B39,2013-09-10 22:57:00,
2013-09-10 16:02:00,83.8,60.2,29.75,WNW,288,5.0,11.0,45,0.00,,,0.00,148,WeatherCatV1.11B39,2013-09-10 23:02:00,
2013-09-10 16:07:00,83.9,60.9,29.74,West,271,12.0,12.0,46,0.00,,,0.00,527,WeatherCatV1.11B39,2013-09-10 23:07:00,
2013-09-10 16:12:00,84.9,60.5,29.75,WSW,253,7.0,10.0,44,0.00,,,0.00,506,WeatherCatV1.11B39,2013-09-10 23:12:00,
2013-09-10 16:17:00,85.2,60.1,29.74,WNW,286,8.0,10.0,43,0.00,,,0.00,492,WeatherCatV1.11B39,2013-09-10 23:17:00,
2013-09-10 16:22:00,85.2,60.1,29.74,West,281,3.0,12.0,43,0.00,,,0.00,436,WeatherCatV1.11B39,2013-09-10 23:22:00,
2013-09-10 16:27:00,85.0,60.6,29.75,WNW,290,5.0,11.0,44,0.00,,,0.00,396,WeatherCatV1.11B39,2013-09-10 23:27:00,
2013-09-10 16:32:00,84.8,59.8,29.75,WNW,297,7.0,8.0,43,0.00,,,0.00,374,WeatherCatV1.11B39,2013-09-10 23:32:00,
2013-09-10 16:37:00,84.8,59.8,29.75,WNW,282,4.0,11.0,43,0.00,,,0.00,357,WeatherCatV1.11B39,2013-09-10 23:37:00,
2013-09-10 16:42:00,84.6,59.6,29.75,WNW,301,7.0,7.0,43,0.00,,,0.00,338,WeatherCatV1.11B39,2013-09-10 23:42:00,
2013-09-10 16:47:00,84.5,60.8,29.75,WNW,299,5.0,8.0,45,0.00,,,0.00,322,WeatherCatV1.11B39,2013-09-10 23:47:00,
2013-09-10 16:52:00,84.7,60.3,29.74,NW,319,7.0,11.0,44,0.00,,,0.00,315,WeatherCatV1.11B39,2013-09-10 23:52:00,
2013-09-10 16:57:00,84.7,59.0,29.75,WNW,290,7.0,13.0,42,0.00,,,0.00,292,WeatherCatV1.11B39,2013-09-10 23:57:00,
2013-09-10 17:02:00,84.4,58.8,29.74,NW,307,8.0,9.0,42,0.00,,,0.00,232,WeatherCatV1.11B39,2013-09-11 00:02:00,
2013-09-10 17:07:00,83.8,58.9,29.75,West,281,7.0,10.0,43,0.00,,,0.00,248,WeatherCatV1.11B39,2013-09-11 00:07:00,
2013-09-10 17:12:00,83.8,58.9,29.75,WNW,299,3.0,9.0,43,0.00,,,0.00,58,WeatherCatV1.11B39,2013-09-11 00:12:00,
2013-09-10 17:17:00,83.1,59.5,29.75,WSW,257,9.0,10.0,45,0.00,,,0.00,65,WeatherCatV1.11B39,2013-09-11 00:17:00,
2013-09-10 17:22:00,82.8,59.3,29.75,WSW,251,6.0,9.0,45,0.00,,,0.00,213,WeatherCatV1.11B39,2013-09-11 00:22:00,
2013-09-10 17:27:00,83.3,59.7,29.75,West,264,8.0,9.0,45,0.00,,,0.00,116,WeatherCatV1.11B39,2013-09-11 00:27:00,
2013-09-10 17:33:00,83.2,59.0,29.75,NW,305,5.0,12.0,44,0.00,,,0.00,153,WeatherCatV1.11B39,2013-09-11 00:33:00,
2013-09-10 17:38:00,83.4,57.9,29.75,West,276,10.0,10.0,42,0.00,,,0.00,135,WeatherCatV1.11B39,2013-09-11 00:38:00,
2013-09-10 17:43:00,83.3,59.1,29.75,West,269,6.0,9.0,44,0.00,,,0.00,111,WeatherCatV1.11B39,2013-09-11 00:43:00,
2013-09-10 17:47:00,83.2,58.3,29.75,WSW,249,3.0,8.0,43,0.00,,,0.00,37,WeatherCatV1.11B39,2013-09-11 00:47:00,
2013-09-10 17:52:00,82.6,59.1,29.75,West,263,6.0,6.0,45,0.00,,,0.00,58,WeatherCatV1.11B39,2013-09-11 00:52:00,
2013-09-10 17:57:00,82.1,59.2,29.75,West,259,5.0,8.0,46,0.00,,,0.00,30,WeatherCatV1.11B39,2013-09-11 00:57:00,
2013-09-10 18:02:00,81.7,58.3,29.75,West,269,3.0,8.0,45,0.00,,,0.00,25,WeatherCatV1.11B39,2013-09-11 01:02:00,
2013-09-10 18:07:00,81.3,59.1,29.75,West,266,5.0,10.0,47,0.00,,,0.00,33,WeatherCatV1.11B39,2013-09-11 01:07:00,
2013-09-10 18:12:00,81.2,59.0,29.76,West,276,3.0,6.0,47,0.00,,,0.00,25,WeatherCatV1.11B39,2013-09-11 01:12:00,
2013-09-10 18:17:00,81.1,58.3,29.76,West,274,2.0,7.0,46,0.00,,,0.00,19,WeatherCatV1.11B39,2013-09-11 01:17:00,
2013-09-10 18:22:00,80.8,58.7,29.76,WNW,283,4.0,4.0,47,0.00,,,0.00,14,WeatherCatV1.11B39,2013-09-11 01:22:00,
2013-09-10 18:27:00,80.3,59.4,29.76,West,276,4.0,6.0,49,0.00,,,0.00,7,WeatherCatV1.11B39,2013-09-11 01:27:00,
2013-09-10 18:32:00,79.9,59.0,29.76,WNW,286,3.0,6.0,49,0.00,,,0.00,5,WeatherCatV1.11B39,2013-09-11 01:32:00,
2013-09-10 18:38:00,79.7,59.4,29.76,West,281,5.0,6.0,50,0.00,,,0.00,0,WeatherCatV1.11B39,2013-09-11 01:38:00,
2013-09-10 18:43:00,79.6,59.3,29.76,West,278,2.0,4.0,50,0.00,,,0.00,0,WeatherCatV1.11B39,2013-09-11 01:43:00,
2013-09-10 18:48:00,79.5,59.8,29.76,West,278,0.0,2.0,51,0.00,,,0.00,0,WeatherCatV1.11B39,2013-09-11 01:48:00,
2013-09-10 18:53:00,79.2,60.6,29.76,West,278,0.0,0.0,53,0.00,,,0.00,0,WeatherCatV1.11B39,2013-09-11 01:53:00,
2013-09-10 18:58:00,78.9,59.8,29.76,West,278,0.0,0.0,52,0.00,,,0.00,0,WeatherCatV1.11B39,2013-09-11 01:58:00,
2013-09-10 19:03:00,78.6,61.1,29.76,West,278,0.0,0.0,55,0.00,,,0.00,0,WeatherCatV1.11B39,2013-09-11 02:03:00,
2013-09-10 19:08:00,77.8,61.3,29.77,West,278,0.0,0.0,57,0.00,,,0.00,0,WeatherCatV1.11B39,2013-09-11 02:08:00,
2013-09-10 19:13:00,77.1,61.2,29.77,West,278,0.0,0.0,58,0.00,,,0.00,0,WeatherCatV1.11B39,2013-09-11 02:13:00,
2013-09-10 19:18:00,76.7,62.7,29.77,West,278,0.0,0.0,62,0.00,,,0.00,0,WeatherCatV1.11B39,2013-09-11 02:18:00,
2013-09-10 19:23:00,76.0,63.8,29.77,West,278,0.0,0.0,66,0.00,,,0.00,0,WeatherCatV1.11B39,2013-09-11 02:23:00,
2013-09-10 19:28:00,75.0,63.3,29.77,West,278,1.0,1.0,67,0.00,,,0.00,0,WeatherCatV1.11B39,2013-09-11 02:28:00,
2013-09-10 19:33:00,75.1,63.8,29.77,West,278,0.0,0.0,68,0.00,,,0.00,0,WeatherCatV1.11B39,2013-09-11 02:33:00,
2013-09-10 19:38:00,74.9,63.2,29.78,West,278,0.0,0.0,67,0.00,,,0.00,0,WeatherCatV1.11B39,2013-09-11 02:38:00,
2013-09-10 19:43:00,74.6,62.5,29.78,West,278,0.0,0.0,66,0.00,,,0.00,0,WeatherCatV1.11B39,2013-09-11 02:43:00,
2013-09-10 19:48:00,74.2,63.8,29.78,West,278,0.0,0.0,70,0.00,,,0.00,0,WeatherCatV1.11B39,2013-09-11 02:48:00,
2013-09-10 19:53:00,74.1,63.3,29.78,West,278,0.0,0.0,69,0.00,,,0.00,0,WeatherCatV1.11B39,2013-09-11 02:53:00,
2013-09-10 19:58:00,74.2,65.0,29.78,West,278,0.0,0.0,73,0.00,,,0.00,0,WeatherCatV1.11B39,2013-09-11 02:58:00,
2013-09-10 20:03:00,73.9,64.7,29.78,West,278,0.0,0.0,73,0.00,,,0.00,0,WeatherCatV1.11B39,2013-09-11 03:03:00,
2013-09-10 20:08:00,73.5,64.3,29.78,West,278,0.0,0.0,73,0.00,,,0.00,0,WeatherCatV1.11B39,2013-09-11 03:08:00,
2013-09-10 20:13:00,73.2,64.0,29.79,West,277,0.0,1.0,73,0.00,,,0.00,0,WeatherCatV1.11B39,2013-09-11 03:13:00,
2013-09-10 20:18:00,73.5,64.7,29.79,West,277,0.0,0.0,74,0.00,,,0.00,0,WeatherCatV1.11B39,2013-09-11 03:18:00,
2013-09-10 20:23:00,73.3,65.3,29.79,West,277,0.0,1.0,76,0.00,,,0.00,0,WeatherCatV1.11B39,2013-09-11 03:23:00,
2013-09-10 20:28:00,72.8,65.2,29.79,West,277,0.0,0.0,77,0.00,,,0.00,0,WeatherCatV1.11B39,2013-09-11 03:28:00,
2013-09-10 20:33:00,72.7,65.4,29.80,West,277,0.0,0.0,78,0.00,,,0.00,0,WeatherCatV1.11B39,2013-09-11 03:33:00,
2013-09-10 20:38:00,72.6,65.0,29.80,West,277,0.0,0.0,77,0.00,,,0.00,0,WeatherCatV1.11B39,2013-09-11 03:38:00,
2013-09-10 20:43:00,72.5,64.9,29.80,West,277,0.0,0.0,77,0.00,,,0.00,0,WeatherCatV1.11B39,2013-09-11 03:43:00,
2013-09-10 20:48:00,72.6,65.0,29.80,West,277,0.0,0.0,77,0.00,,,0.00,0,WeatherCatV1.11B39,2013-09-11 03:48:00,
2013-09-10 20:53:00,72.3,65.0,29.81,West,277,0.0,0.0,78,0.00,,,0.00,0,WeatherCatV1.11B39,2013-09-11 03:53:00,
2013-09-10 20:58:00,72.2,64.9,29.81,West,277,0.0,1.0,78,0.00,,,0.00,0,WeatherCatV1.11B39,2013-09-11 03:58:00,
2013-09-10 21:01:00,72.1,64.5,29.81,West,277,0.0,1.0,77,0.00,,,0.00,0,WeatherCatV1.11B39,2013-09-11 04:01:00,
2013-09-10 21:02:00,72.0,64.8,29.81,West,277,0.0,1.0,78,0.00,,,0.00,0,WeatherCatV1.11B39,2013-09-11 04:02:00,
2013-09-10 21:07:00,72.0,64.4,29.81,West,277,0.0,0.0,77,0.00,,,0.00,0,WeatherCatV1.11B39,2013-09-11 04:07:00,
2013-09-10 21:12:00,71.9,63.9,29.81,West,277,0.0,1.0,76,0.00,,,0.00,0,WeatherCatV1.11B39,2013-09-11 04:12:00,
2013-09-10 21:17:00,71.7,64.5,29.81,West,277,0.0,0.0,78,0.00,,,0.00,0,WeatherCatV1.11B39,2013-09-11 04:17:00,
2013-09-10 21:22:00,71.5,64.3,29.82,West,277,0.0,0.0,78,0.00,,,0.00,0,WeatherCatV1.11B39,2013-09-11 04:22:00,
2013-09-10 21:27:00,71.4,64.5,29.82,West,277,0.0,0.0,79,0.00,,,0.00,0,WeatherCatV1.11B39,2013-09-11 04:27:00,
2013-09-10 21:32:00,71.2,64.3,29.82,West,277,0.0,0.0,79,0.00,,,0.00,0,WeatherCatV1.11B39,2013-09-11 04:32:00,
2013-09-10 21:37:00,70.8,64.0,29.82,West,277,0.0,0.0,79,0.00,,,0.00,0,WeatherCatV1.11B39,2013-09-11 04:37:00,
2013-09-10 21:42:00,70.6,64.8,29.82,West,277,0.0,0.0,82,0.00,,,0.00,0,WeatherCatV1.11B39,2013-09-11 04:42:00,
2013-09-10 21:47:00,70.5,64.4,29.82,West,268,0.0,3.0,81,0.00,,,0.00,0,WeatherCatV1.11B39,2013-09-11 04:47:00,
2013-09-10 21:52:00,70.7,64.2,29.82,West,269,1.0,1.0,80,0.00,,,0.00,0,WeatherCatV1.11B39,2013-09-11 04:52:00,
2013-09-10 21:57:00,70.5,64.4,29.82,West,269,0.0,0.0,81,0.00,,,0.00,0,WeatherCatV1.11B39,2013-09-11 04:57:00,
2013-09-10 22:02:00,70.3,64.5,29.82,West,269,0.0,0.0,82,0.00,,,0.00,0,WeatherCatV1.11B39,2013-09-11 05:02:00,
2013-09-10 22:07:00,70.3,64.5,29.82,West,269,0.0,1.0,82,0.00,,,0.00,0,WeatherCatV1.11B39,2013-09-11 05:07:00,
2013-09-10 22:12:00,70.0,64.2,29.82,West,269,0.0,0.0,82,0.00,,,0.00,0,WeatherCatV1.11B39,2013-09-11 05:12:00,
2013-09-10 22:17:00,69.8,64.0,29.82,West,269,0.0,0.0,82,0.00,,,0.00,0,WeatherCatV1.11B39,2013-09-11 05:17:00,
2013-09-10 22:22:00,69.9,64.5,29.82,West,269,0.0,0.0,83,0.00,,,0.00,0,WeatherCatV1.11B39,2013-09-11 05:22:00,
2013-09-10 22:27:00,69.6,64.5,29.82,West,269,0.0,0.0,84,0.00,,,0.00,0,WeatherCatV1.11B39,2013-09-11 05:27:00,
2013-09-10 22:32:00,69.6,64.5,29.83,West,269,1.0,1.0,84,0.00,,,0.00,0,WeatherCatV1.11B39,2013-09-11 05:32:00,
2013-09-10 22:37:00,69.5,64.4,29.83,West,269,0.0,0.0,84,0.00,,,0.00,0,WeatherCatV1.11B39,2013-09-11 05:37:00,
2013-09-10 22:42:00,69.7,64.6,29.83,West,269,0.0,0.0,84,0.00,,,0.00,0,WeatherCatV1.11B39,2013-09-11 05:42:00,
2013-09-10 22:47:00,69.4,64.7,29.82,West,269,0.0,0.0,85,0.00,,,0.00,0,WeatherCatV1.11B39,2013-09-11 05:47:00,
2013-09-10 22:52:00,69.1,64.4,29.82,West,269,0.0,0.0,85,0.00,,,0.00,0,WeatherCatV1.11B39,2013-09-11 05:52:00,
2013-09-10 22:57:00,68.9,64.5,29.83,West,269,0.0,1.0,86,0.00,,,0.00,0,WeatherCatV1.11B39,2013-09-11 05:57:00,
2013-09-10 23:02:00,68.9,64.2,29.83,West,270,0.0,0.0,85,0.00,,,0.00,0,WeatherCatV1.11B39,2013-09-11 06:02:00,
2013-09-10 23:07:00,69.1,64.1,29.83,West,268,1.0,2.0,84,0.00,,,0.00,0,WeatherCatV1.11B39,2013-09-11 06:07:00,
2013-09-10 23:12:00,69.2,64.2,29.83,WSW,242,0.0,1.0,84,0.00,,,0.00,0,WeatherCatV1.11B39,2013-09-11 06:12:00,
2013-09-10 23:17:00,69.2,63.8,29.83,WSW,242,1.0,1.0,83,0.00,,,0.00,0,WeatherCatV1.11B39,2013-09-11 06:17:00,
2013-09-10 23:22:00,68.9,63.9,29.83,WSW,239,1.0,2.0,84,0.00,,,0.00,0,WeatherCatV1.11B39,2013-09-11 06:22:00,
2013-09-10 23:27:00,68.9,63.5,29.83,SE,140,1.0,3.0,83,0.00,,,0.00,0,WeatherCatV1.11B39,2013-09-11 06:27:00,
2013-09-10 23:32:00,69.1,63.7,29.83,SE,138,0.0,2.0,83,0.00,,,0.00,0,WeatherCatV1.11B39,2013-09-11 06:32:00,
2013-09-10 23:37:00,69.3,63.2,29.83,SE,137,1.0,2.0,81,0.00,,,0.00,0,WeatherCatV1.11B39,2013-09-11 06:37:00,
2013-09-10 23:42:00,69.6,63.5,29.83,SE,137,0.0,2.0,81,0.00,,,0.00,0,WeatherCatV1.11B39,2013-09-11 06:42:00,
2013-09-10 23:47:00,69.7,63.6,29.84,SE,137,0.0,1.0,81,0.00,,,0.00,0,WeatherCatV1.11B39,2013-09-11 06:47:00,
2013-09-10 23:52:00,69.7,63.6,29.84,SE,137,0.0,0.0,81,0.00,,,0.00,0,WeatherCatV1.11B39,2013-09-11 06:52:00,
2013-09-10 23:57:00,69.5,63.4,29.84,SE,137,0.0,1.0,81,0.00,,,0.00,0,WeatherCatV1.11B39,2013-09-11 06:57:00,